Location: ?
(35.6144°N, 139.6873°E)
Time: 19:14:15
(UTC+00:00)

Cosmos 1603 - Pass Details

Date: 23 May 2024
Orbit: 829 x 860 km, 71.0° (Epoch: 21 June)

Event Time Altitude Azimuth Distance (km) Brightness Sun altitude
Exits shadow 11:46:15 33° 174° (S) 1,382 4.4 -20.5°
Maximum altitude 11:48:42 61° 107° (ESE) 953 3.7 -20.8°
Drops below altitude 10° 11:54:17 10° 29° (NNE) 2,477 6.4 -21.6°
Sets 11:56:46 0° 26° (NNE) 3,421 7.2 -21.9°
